User: anonymous   Login
Location: Nitra
(0.0000°N, 18.0833°E)
Time: 12:59:29
(UTC+02:00)
Language:

MOZHAYETS 4 - Orbit

View from above orbital plane
View from above orbital plane
View from above satellite
View from above satellite

Ground track
Ground track

The orbit data is extracted from the following two-line orbital elements,

1 27939U 03042A   23156.14255894  .00001208  00000-0  21762-3 0  9996
2 27939  98.2418 303.0141 0012801 169.1895 299.1727 14.68362184 52778
Epoch (UTC): 05 June 2023 03:25:17
Eccentricity: 0.0012801
inclination: 98.2418°
perigee height: 657 km
apogee height: 675 km
right ascension of ascending node: 303.0141°
argument of perigee: 169.1895°
revolutions per day: 14.68362184
mean anomaly at epoch: 299.1727°
orbit number at epoch: 5277

The dashed part of the orbit path shows where the satellite is in the earth's shadow,  

DLR